Regional Weather Roundup
Issued by NWS Raleigh/Durham, NC

Home | Current Version | Previous Version | Text Only | Print | Product List | Glossary On
Versions: 1 2 3 4 5 6 7 8 9 10 11 12 13 14 15 16 17 18 19 20 21 22 23 24 25
000
ASUS42 KRAH 182010
RWRRAH
NORTH CAROLINA WEATHER ROUNDUP
NATIONAL WEATHER SERVICE RALEIGH NC
300 PM EST SUN FEB 18 2018

NOTE: "FAIR" INDICATES FEW OR NO CLOUDS BELOW 12,000 FEET WITH NO
SIGNIFICANT WEATHER AND/OR OBSTRUCTIONS TO VISIBILITY.

NCZ001-053-055-056-065-067-182100-
WESTERN NORTH CAROLINA

CITY           SKY/WX    TMP DP  RH WIND       PRES   REMARKS
ASHEVILLE      FAIR      61  35  37 SE13G21   30.26F
JEFFERSON      FAIR      50  29  44 SE5       30.27F
MORGANTON      FAIR      62  31  31 E7        30.33S
HICKORY        FAIR      59  31  34 VRB5      30.29F
RUTHERFORDTON  FAIR      62  36  37 SE8       30.29F
MOUNT AIRY     FAIR      58  25  28 S5        30.33F
BOONE          FAIR      52  30  41 SE5       30.28S
$$

NCZ021-022-025-041-071-084-088-182100-
CENTRAL NORTH CAROLINA

CITY           SKY/WX    TMP DP  RH WIND       PRES   REMARKS
CHARLOTTE      PTSUNNY   64  35  34 VRB5      30.30F
GREENSBORO     FAIR      57  30  35 VRB6      30.31F
WINSTON-SALEM  FAIR      57  29  34 VRB3      30.33F
RALEIGH-DURHAM FAIR      60  34  37 E7        30.34S
FORT BRAGG     FAIR      64  31  29 NE8         N/A
FAYETTEVILLE   FAIR      65  37  35 SE8       30.31F
BURLINGTON     FAIR      63  33  32 E7        30.32F
LAURINBURG     FAIR      65  39  38 E13       30.31F
$$

NCZ011-015-027-028-043-044-047-080-103-182100-
NORTHEASTERN NORTH CAROLINA

CITY           SKY/WX    TMP DP  RH WIND       PRES   REMARKS
ROCKY MT-WILSO FAIR      59  40  49 E5        30.35S
GREENVILLE     FAIR      59  37  44 E8        30.36S
WASHINGTON     FAIR      57  39  50 E8        30.37S
ELIZABETH CITY FAIR      52  38  58 NE15      30.39F
MANTEO         FAIR      48  34  59 NE16G24   30.41S
CAPE HATTERAS  FAIR      51  37  58 NE12G23   30.39R
$$

NCZ078-087-090-091-093-098-101-182100-
SOUTHEASTERN NORTH CAROLINA

CITY           SKY/WX    TMP DP  RH WIND       PRES   REMARKS
LUMBERTON      FAIR      65  41  41 NE8       30.30F
GOLDSBORO      FAIR      63  36  37 E7        30.31F
KINSTON        FAIR      63  39  42 E10       30.34F
KENANSVILLE    PTSUNNY   64  37  36 CALM      30.33S
NEW BERN       FAIR      57  40  52 E13       30.37R
CHERRY POINT   NOT AVBL
BEAUFORT       FAIR      56  38  50 NE14G23   30.37R
JACKSONVILLE   PTSUNNY   61  47  59 SE15      30.33R
WILMINGTON     CLOUDY    58  46  64 E14G24    30.35R
$$





USA.gov is the U.S. government's official web portal to all federal, state and local government web resources and services.